This is the latest recevied weather packets stored in our database for station/object NB9X. If no packets are shown the sender has not sent any weather packets the latest 10 day(s).
| Time | Temp. | Humidity | Pressure | Rain* | Wind** | Luminosity | Snow |
|---|---|---|---|---|---|---|---|
| 1788387563 | 26.67° C | 100% | 1012.4 hPa | 1.78 mm | - | - | - |
| 1788387263 | 26.11° C | 100% | 1012.4 hPa | 2.54 mm | - | - | - |
| 1788386963 | 26.11° C | 100% | 1012.5 hPa | 3.56 mm | - | - | - |
| 1788386663 | 26.11° C | 100% | 1012.3 hPa | 5.08 mm | - | - | - |
| 1788386363 | 26.11° C | 100% | 1012 hPa | 6.35 mm | - | - | - |
| 1788386063 | 26.11° C | 100% | 1012 hPa | 6.35 mm | - | - | - |
| 1788385763 | 25.56° C | 100% | 1012.2 hPa | 6.35 mm | - | - | - |
| 1788385463 | 26.11° C | 100% | 1012.1 hPa | 6.1 mm | - | - | - |
| 1788385163 | 25.56° C | 100% | 1012.3 hPa | 6.1 mm | - | - | - |
| 1788384863 | 26.11° C | 100% | 1012.5 hPa | 6.1 mm | - | - | - |
| 1788384563 | 26.11° C | 100% | 1012.7 hPa | 5.84 mm | - | - | - |
| 1788384263 | 26.11° C | 100% | 1012.8 hPa | 5.59 mm | - | - | - |
| 1788383963 | 26.11° C | 100% | 1012.8 hPa | 5.08 mm | - | - | - |
| 1788383663 | 26.11° C | 100% | 1012.5 hPa | 4.32 mm | - | - | - |
| 1788383363 | 26.11° C | 100% | 1012.1 hPa | 3.3 mm | - | - | - |
| 1788383063 | 26.67° C | 100% | 1012.1 hPa | 1.78 mm | - | - | - |
| 1788382763 | 27.22° C | 100% | 1012.4 hPa | 0.25 mm | - | - | - |
| 1788382463 | 29.44° C | 100% | 1012.3 hPa | 0 mm | - | - | - |
| 1788382163 | 31.67° C | 100% | 1012.2 hPa | 0 mm | - | - | - |
| 1788381864 | 32.22° C | 100% | 1012.1 hPa | 0 mm | - | - | - |
| 1788381563 | 33.33° C | 100% | 1012 hPa | 0 mm | - | - | - |
| 1788381263 | 32.78° C | 100% | 1011.9 hPa | 0 mm | - | - | - |
| 1788380963 | 33.89° C | 100% | 1011.9 hPa | 0 mm | - | - | - |
| 1788380663 | 33.89° C | 100% | 1012 hPa | 0 mm | - | - | - |
| 1788380363 | 33.89° C | 100% | 1012.1 hPa | 0 mm | - | - | - |
* Rain latest hour (hover to see other rain measurements)
** Current wind speed in m/s (hover to see current wind gust speed)